Regional Weather Roundup
Issued by NWS Wakefield, VA

Home | Current Version | Previous Version | Text Only | Print | Product List | Glossary On
Versions: 1 2 3 4 5 6 7 8 9 10 11 12 13 14 15 16 17 18 19 20 21 22 23 24 25 26 27 28 29 30 31 32 33 34 35 36 37 38 39 40 41 42 43 44 45 46 47 48 49 50
000
ASUS41 KAKQ 271614
RWRAKQ

REGIONAL WEATHER ROUNDUP
NATIONAL WEATHER SERVICE WAKEFIELD VA
1200 PM EDT FRI MAR 27 2015

Note: "fair" indicates few or no clouds below 12,000 feet with no
significant weather and/or obstructions to visibility. * = Denotes
station may not report precipitation (e.g., rain,snow,etc.),
thunder or fog.

VAZ042-051-052>054-056-271700-
NORTHERN VIRGINIA

CITY           SKY/WX    TMP DP  RH WIND       PRES   REMARKS
WASH NATIONAL  CLOUDY    47  35  63 N10       29.84R
DULLES         CLOUDY    42  32  67 NW10      29.83S
FORT BELVOIR   CLOUDY    43  36  75 NW6       29.84R
QUANTICO       LGT RAIN  43  35  73 N9        29.85S
FREDERICKSBRG* LGT RAIN  41  40  95 N9        29.84F
STAFFORD*      LGT RAIN  39  39 100 N8        29.88F
WARRENTON      CLOUDY    44  39  84 N7        29.82F
CULPEPER*      CLOUDY    45  37  76 N6        29.83F
MANASSAS*      NOT AVBL
LEESBURG*      CLOUDY    43  34  70 N8        29.83S
WINCHESTER     CLOUDY    43  27  52 CALM      29.83S
FRONT ROYAL*   CLOUDY    43  32  65 N5        29.82F
LURAY*         CLOUDY    45  36  70 NE6       29.81F
$$

VAZ048-049-060>072-079>083-271700-
CENTRAL AND SOUTH CENTRAL VIRGINIA

CITY           SKY/WX    TMP DP  RH WIND       PRES   REMARKS
RICHMOND       RAIN      41  37  87 N12       29.82R FOG
CHESTERFIELD*  CLOUDY    41  28  60 N12G17    29.84R
PETERSBURG*    LGT RAIN  43  41  91 N9        29.83F
HANOVER        RAIN      38  36  92 N8        29.85F FOG
TAPPAHANNOCK*  RAIN      42  37  83 NW9       29.84R
QUINTON*       CLOUDY    41  39  93 N8G20     29.82R
CHARLOTTSVILLE CLOUDY    42  37  82 N5        29.82F
GORDONSVILLE*  CLOUDY    39  37  91 NE8       29.83F
ORANGE*        LGT RAIN  41  37  87 N7        29.84F
LOUISA*        LGT RAIN  39  37  93 N10G17    29.82F
BUMPASS*       CLOUDY    39  37  92 N9G21     29.82F
FARMVILLE*     RAIN      42  42 100 NE8       29.83S
CREWE*         CLOUDY    40  38  91 MISG      29.83R
FORT PICKETT*  CLOUDY    41  39  94 N13G18    29.82R
CHASE CITY*    CLOUDY    44  44  99 N10       29.81F
CLARKSVILLE*   CLOUDY    43  43 100 N8G17     29.80F
SOUTH HILL*    CLOUDY    42  41  95 N8        29.86S
LAWRENCEVILLE* CLOUDY    43  42  96 N6        29.81R
EMPORIA*       RAIN      43  41  93 NW13      29.83R
$$

VAZ088>098-271700-
SOUTHEAST VIRGINIA

CITY           SKY/WX    TMP DP  RH WIND       PRES   REMARKS
NORFOLK        CLOUDY    44  40  85 N16       29.76R
VIRGINIA BEACH DRIZZLE   47  42  83 N10       29.75R FOG
NORFOLK NAVAL  DRIZZLE   47  41  80 N25       29.77F FOG
WEST POINT*    CLOUDY    44  40  85 N6        29.84R
SALUDA*        CLOUDY    42  38  88 N10G16    29.81R
NEWPORT NEWS   LGT RAIN  47  40  76 N14       29.79R
LANGLEY AFB    LGT RAIN  44  40  88 NE15G21   29.76F FOG
FORT EUSTIS    LGT RAIN  44  42  95 NE7       29.77R
WILLIAMSBURG*  CLOUDY    46  43  87 N7        29.81R VSB 1
HR EXEC AP*    CLOUDY    45  39  81 NE13G24   29.78S
FRANKLIN*      CLOUDY    45  42  89 N12G20    29.80R FOG
WAKEFIELD      LGT RAIN  44  40  85 N8        29.80R FOG
$$

VAZ020-022-025-037-045-271700-
WEST CENTRAL AND SOUTHWEST VIRGINIA

CITY           SKY/WX    TMP DP  RH WIND       PRES   REMARKS
STAUNTON*      CLOUDY    43  34  71 NE9       29.81F
WAYNESBORO*    CLOUDY    39  35  87 N6        29.79F
HOT SPRINGS VA CLOUDY    31  29  91 NW7       29.72S
LYNCHBURG      LGT RAIN  43  41  93 N5        29.81F
DANVILLE       LGT RAIN  46  41  82 NE10G21   29.80F
SOUTH BOSTON*  CLOUDY    44  41  91 NE7       29.81F
MARTINSVILLE   LGT RAIN  43  43 100 N5        29.83F
ROANOKE        CLOUDY    42  35  76 NW8       29.83F
BLACKSBURG     CLOUDY    36  32  83 NW9       29.82F
DUBLIN*        CLOUDY    38  32  78 N8        29.81F
MARION*        CLOUDY    37  30  77 NW10G18   29.83F
HILLSVILLE*    CLOUDY    36  33  90 N14       29.77F
RICHLANDS*     CLOUDY    33  27  80 N5        29.84F
WISE*          CLOUDY    34  32  93 N7        29.87F
ABINGDON*      PTSUNNY   40  30  68 N12G22    29.85R
$$

MDZ021>025-VAZ099-100-271700-
SOUTHERN MARYLAND AND THE DELMARVA PENINSULA

CITY           SKY/WX    TMP DP  RH WIND       PRES   REMARKS
PATUXENT RIVER LGT RAIN  42  38  85 NW14      29.80S
BAY BRIDGE APT   N/A     41  34  75 N7        29.80F
LEONARDTOWN    CLOUDY    41  36  81 CALM      29.83R
DOVER          LGT RAIN  39  39 100 N13       29.78F
GEORGETOWN     CLOUDY    42  36  79 N9        29.79S
EASTON         LGT RAIN  43  41  93 NE9       29.83F
CAMBRIDGE      CLOUDY    43  37  81 N7        29.79R
SALISBURY      LGT RAIN  41  36  82 N12G22    29.77S
OCEAN CITY     CLOUDY    43  36  76 N12       29.77R
WALLOPS ISLAND LGT RAIN  44  39  82 NE14      29.76F
ACCOMACK*      CLOUDY    43  36  75 N12G26    29.75F
$$

NCZ012>017-030>032-271700-
NORTH CENTRAL AND EASTERN NORTH CAROLINA

CITY           SKY/WX    TMP DP  RH WIND       PRES   REMARKS
ROANOKE RAPIDS HVY RAIN  45  43  93 N13G21    29.79S
RALEIGH        LGT RAIN  46  43  89 NE13G18   29.78S FOG
ELIZABETH CITY CLOUDY    47  45  93 N14       29.74S FOG
AHOSKIE*       RAIN      45  44  95 N9        29.76S
EDENTON*       CLOUDY    46  44  93 NE10      29.73F FOG
CURRITUCK*     CLOUDY    46  44  90 NE18G24   29.75R FOG
KILL DEVIL HLS CLOUDY    43  42  97 N14G23    29.70F FOG
MANTEO         CLOUDY    44  42  95 N18G30    29.72F
CAPE HATTERAS  CLOUDY    47  44  90 N16G26    29.69F
TARBORO*       LGT RAIN  47  45  93 N7        29.78R
GOLDSBORO      HVY RAIN  48  45  87 N13       29.73R VSB 1
WASHINGTON     CLOUDY    47  45  90 NE12G18   29.73S
GREENVILLE     CLOUDY    50  48  93 NE10      29.76S FOG
NEW BERN       CLOUDY    51  47  86 N17G23    29.71R
WILMINGTON     CLOUDY    71  62  73 W6        29.65F
$$

VAZ048-271700-
ELSEWHERE

CITY           SKY/WX    TMP DP  RH WIND       PRES   REMARKS
HARRISBURG PA  CLOUDY    42  26  53 NE9       29.79F
BALTIMORE      CLOUDY    44  35  70 N8        29.81R
ANNAPOLIS      LGT RAIN  43  35  73 CALM      29.82R
ANDREWS AFB    LGT RAIN  43  37  81 N8        29.81R
PHILADELPHIA   CLOUDY    44  34  67 N10       29.77F
GREENSBORO     LGT RAIN  44  40  85 N10       29.77S
ROCKY MOUNT    RAIN      46  45  96 N14       29.75S FOG
$$

VAZ100-271700-
MARINE

STATION/POSITION TIME  TEMP    WIND        PRES    WAVE   SWELL
                       AIR SEA DIR/SP/G            HT/PER HT/PER
                 (UTC) (F)     (DEG/KT/KT) (MB)    (FT/S) (FT/S)
BRANDYWINE LGT   1500   40 40  360/ 16/ 17 1008.3S
CAPE MAY NJ      1500   41 43  320/  2/  6 1007.6S
LEWES DE         1500   41 43  350/ 17/ 19 1008.2F
15NM E FENWICK I 1550   40 40              1007.0F   6/ 8
OCEAN-CITY-INLET 1500   43 45   10/ 13/ 17 1007.4R
WACHAPREAGUE VA  1500   45 51   10/  7/ 17 1007.6F
THOMAS POINT MD  1600                        N/A
COVE POINT MD    1500   40     350/ 13/ 15 1008.8S
SOLOMONS ISLAND  1500      44                N/A
BISHOPS HEAD MD  1500   42 48   10/  7/ 14 1008.1F
PINEY POINT MD   1500           10/ 10/ 13   N/A
CAMBRIDGE MD     1500   42 45   10/ 10/ 12 1008.6S
LEWISETTA VA     1500   42 45              1008.8F
RAPPAHANNOCK LGT 1500           10/ 22/ 24 1008.3F
STINGRAY PT      1600   42 44   10/ 17/ 21   N/A     2/ 3
YORK RVR RNG VA  1500   45      20/ 22/ 26 1007.3R
YORKTOWN VA      1500   44 47   10/ 16/ 21 1007.9R
DOMINION TERM VA 1500   46      40/  4/ 12 1008.0R
KIPTOPEKE VA     1500      50   10/ 11/ 16   N/A
CHES BAY BRIDGE  1500   43 45  350/ 22/ 25 1007.2F
CAPE HENRY VA    1500   42     340/ 20/ 22 1006.2F
CHESAPEAKE LGHT  1500   42      20/ 15/ 16 1007.9R
WILLOUBY STN VA  1500   45      10/ 20/ 23 1008.4R
S CRANEY ISL VA  1500           20/ 18/ 22 1007.7R
CAPE HENRY BUOY  1528      42                N/A     4/ 9   2/11
1ST LANDING BUOY 1600   43     350/ 17/ 23 1007.5R   3/ 3
OFFSHORE WE BUOY 1511      41                N/A     5/ 8   5/ 8
64NM E OF VA BCH 1550   49 52   10/ 23/ 27 1004.7S   9/ 7   3/10
DUCK PIER NC     1500   42 41   20/ 17/ 21 1006.0R
44056 DUCK FRF   1511      42                N/A     5/ 5   2/11
OREGON INLET NC  1500   44 59   10/ 17/ 23 1005.6S
HATTERAS NC      1500   50 60   10/ 20/ 24 1006.1R
CAPE LOOKOUT NC  1600   62     250/  8/ 11 1004.3F
$$


USA.gov is the U.S. government's official web portal to all federal, state and local government web resources and services.